Find Starlink 36945

NORAD ID: 68050 Int'l Des: 2026-041 Owner: SPXS Country: US Constellation: starlink operational
LEOCIRCULAR

Live Position

Loading 3D Globe...

About Starlink 36945

Description loading...

Upcoming Passes

Passes for default location (London). Set your location on the main map for personalized predictions.

Altitude History

Loading altitude history...

Two-Line Element Set

1 68050U 26041L 26106.91668981 -.01873529 00000-0 -44017-1 0 9999
2 68050 53.1608 232.2508 0000961 71.4541 221.9270 15.44668682 5989
Epoch: Apr 16, 2026 • Age: 7 hours

Current Status

Altitude 440.5 km
Velocity 7.65 km/s
Sub-Earth Point 47.83°N, 75.39°E
Launch Date Mar 2, 2026
Age 0.1 years
Type internet

Technical Details

Classification Payload
Mass 575.00 kg
Dry Mass 530.00 kg
Total Mass 575.00 kg
Length 0.30 m
Diameter 4.10 m
Span 29.00 m
Shape Box + pan
Manufacturer SPXS
Bus Type Starlink V2MO
Phase Status In Orbit
Owner/State SPXS/US

Most Searched